Lid_Strength_Index
1 1 1 1 1 1 1 1 1 1 1 1 0 1 1 1 1 1 1 1 2 1 1 1 2 1 2 2 1 2 2 3 4 3 2 2 2 2 1 -0 -0 0 0
1 1 1 1 1 1 1 1 1 1 0 1 0 1 1 0 1 1 1 1 1 2 2 1 1 1 2 1 1 2 2 2 2 4 3 2 2 1 1 0 0 -0 0
1 1 1 1 1 1 1 1 1 1 1 0 1 1 1 1 1 1 1 1 1 1 1 1 1 1 2 2 2 2 2 1 2 3 3 2 2 1 1 1 1 1 -0
2 1 2 2 1 1 1 1 1 1 1 1 1 0 0 0 1 1 1 1 1 1 1 0 0 1 1 1 2 2 2 2 2 2 2 2 3 2 2 2 2 1 1
2 2 2 2 2 1 2 2 1 1 0 0 1 1 1 2 4 4 3 2 1 1 1 1 1 1 2 2 1 2 2 3 2 3 3 3 3 3 3 2 2 1 1
2 2 3 2 2 2 1 1 1 1 1 1 1 2 3 4 5 4 3 3 1 1 1 1 2 2 3 3 3 3 2 3 3 3 3 3 3 3 2 2 2 3 4
2 2 2 2 1 1 1 1 1 1 1 2 3 4 5 5 7 6 5 3 2 2 1 1 1 3 4 3 2 3 4 4 3 3 3 3 3 2 2 2 2 3 3
2 2 2 2 2 1 1 1 1 1 1 2 4 6 7 8 9 8 6 4 2 2 2 3 4 6 6 3 2 2 3 4 4 2 3 2 2 1 1 1 2 2 1
2 2 2 2 2 2 2 2 1 1 2 3 4 7 8 10 9 7 3 1 4 5 4 5 6 7 7 5 2 3 5 6 5 5 4 4 4 4 4 1 2 3 3
2 2 1 1 2 2 2 1 2 2 4 4 6 7 7 10 9 8 6 2 7 8 8 8 7 8 8 7 3 6 7 6 5 4 3 4 4 3 2 2 2 3 3
2 2 2 2 2 2 1 2 3 5 6 6 7 7 8 10 10 9 9 5 4 4 6 7 9 9 9 9 8 5 6 6 4 3 5 5 5 4 4 4 4 4 5
4 3 2 2 1 1 2 3 4 4 5 7 8 9 9 10 10 10 10 8 5 5 6 9 9 9 9 8 7 7 6 5 6 6 6 7 7 7 6 6 6 6 5
5 6 7 8 8 7 3 2 3 4 6 7 8 8 8 8 10 11 11 10 10 10 10 9 9 9 9 8 8 8 7 7 6 6 8 8 7 7 7 6 5 5 4
4 6 8 9 10 10 11 11 10 9 7 5 5 7 9 12 12 13 13 13 12 11 10 7 8 8 8 8 8 7 6 7 7 7 7 7 7 7 7 7 8 7 7
5 5 8 9 11 12 12 12 13 14 13 10 9 6 10 12 15 14 14 14 14 13 11 9 10 10 9 9 8 8 7 8 8 8 8 7 7 8 8 8 8 9 10
6 6 6 8 10 11 12 12 13 14 14 14 13 11 13 13 14 14 14 14 14 12 8 8 8 8 9 9 9 9 9 8 9 9 9 9 9 9 10 10 10 11 12
6 5 5 5 6 8 9 11 14 13 13 14 14 13 14 14 14 15 15 13 12 10 8 8 8 9 10 10 10 10 11 11 10 10 10 11 11 11 11 12 12 12 12
9 8 9 8 6 6 7 8 10 11 12 13 13 13 13 14 14 14 14 11 10 9 9 10 10 10 10 10 10 11 11 11 11 11 11 12 12 12 12 12 12 13 13
7 8 9 8 8 7 7 8 10 10 11 12 13 12 13 13 13 13 12 10 11 11 11 11 11 11 11 11 11 12 12 12 12 12 13 13 13 13 13 13 13 12 12
8 5 7 9 9 9 9 9 9 9 11 13 13 12 12 11 10 10 10 10 11 11 12 12 12 12 12 12 13 13 13 13 13 14 14 14 14 14 14 14 13 14 14
6 7 5 9 8 9 9 9 9 8 9 11 11 10 11 10 10 11 11 11 10 11 11 12 12 12 12 13 13 13 13 14 14 14 15 15 15 15 15 14 14 13 13
5 6 7 8 8 8 8 8 9 8 8 9 10 11 11 10 9 9 10 11 10 10 10 10 11 11 12 12 13 14 14 15 15 15 15 16 16 15 15 14 13 13 12
6 6 7 8 8 6 7 8 8 7 8 9 10 9 9 8 8 8 8 9 10 9 9 10 11 11 12 13 12 12 14 15 15 14 15 15 14 13 13 13 13 13 12
6 6 7 9 9 9 8 8 8 7 7 8 8 8 7 6 6 6 7 7 7 8 8 9 10 11 11 12 12 13 13 13 13 13 13 14 12 11 12 12 12 11 11
5 5 7 8 9 8 8 8 8 8 7 7 7 7 7 6 6 6 7 6 7 7 8 9 9 9 10 10 11 11 12 12 11 11 11 11 11 11 11 11 11 10 9
3 4 6 7 8 8 8 7 7 7 7 7 7 7 7 6 6 6 7 7 7 8 7 7 8 8 8 8 9 10 12 11 11 12 11 11 11 10 10 10 10 9 9